Location: LDNL
(36.4545°S, 141.6685°E)
Time: 11:31:43
(UTC+10:00)

Oscar 11 - Pass Details

Date: 28 May 2022
Orbit: 613 x 622 km, 97.6° (Epoch: 29 June)

Event Time Altitude Azimuth Distance (km) Brightness Sun altitude
Rises 18:12:43 0° 180° (S) 2,929 10.3 -9.2°
Reaches altitude 10° 18:15:06 10° 190° (S) 2,013 9.6 -9.6°
Maximum altitude 18:18:57 31° 251° (WSW) 1,108 9.0 -10.3°
Drops below altitude 10° 18:22:45 10° 313° (NW) 1,983 10.8 -11.1°
Sets 18:25:06 0° 323° (NW) 2,878 11.5 -11.5°
